GW0422 Weather Reports


Display with metric or nautical units.
time (UTC)temp
F
wind
direction
speed
MPH
gust
MPH
rain 1hr
in
rain 24hr
in
rain mn
in
humidity
%
barometer
mb
20260508080917 52 168 0.0 2.0 0.00 0.00 0.00 75 1017.3
20260508075903 52 168 0.0 1.0 0.00 0.00 0.00 77 1017.1
20260508074904 51 168 0.0 1.0 0.00 0.00 0.00 78 1017.1
20260508074125 51 168 0.0 0.0 0.00 0.00 0.00 78 1016.9
20260508072916 51 168 0.0 1.0 0.00 0.00 0.00 76 1016.8
20260508071922 51 168 0.0 1.0 0.00 0.00 0.00 78 1016.7
20260508070918 51 168 0.0 1.0 0.00 0.00 0.00 81 1016.5
20260508065905 50 168 0.0 1.0 0.00 0.00 0.00 80 1016.7
20260508064906 50 168 0.0 0.0 0.00 0.00 0.00 81 1016.5
20260508063913 49 168 0.0 1.0 0.00 0.00 0.00 82 1016.3
20260508062924 48 168 0.0 0.0 0.00 0.00 0.00 86 1016.4
20260508061918 47 168 0.0 1.0 0.00 0.00 0.00 90 1016.2
20260508061401 47 168 0.0 0.0 0.00 0.00 0.00 92 1016.1
20260508060406 46 168 0.0 0.0 0.00 0.00 0.00 96 1016.3
20260508055414 45 168 0.0 0.0 0.00 0.00 0.00 95 1016.1
20260508054414 44 168 0.0 0.0 0.00 0.00 0.00 95 1015.9
20260508053422 43 168 0.0 0.0 0.00 0.00 0.00 95 1016.1
20260508052918 43 168 0.0 0.0 0.00 0.00 0.00 95 1016.2
20260508052415 42 168 0.0 0.0 0.00 0.00 0.00 95 1016.1
20260508051418 42 168 0.0 0.0 0.00 0.00 0.00 95 1016.0
20260508050404 41 168 0.0 0.0 0.00 0.00 0.00 95 1015.9
20260508045403 41 168 0.0 0.0 0.00 0.00 0.00 95 1015.8
20260508044407 41 168 0.0 0.0 0.00 0.00 0.00 95 1015.7
20260508043410 40 168 0.0 0.0 0.00 0.00 0.00 95 1015.8
20260508042910 40 168 0.0 0.0 0.00 0.00 0.00 94 1015.9
20260508042409 40 168 0.0 0.0 0.00 0.00 0.00 94 1015.8
20260508041413 39 168 0.0 0.0 0.00 0.00 0.00 93 1015.8
20260508040413 39 168 0.0 0.0 0.00 0.00 0.00 92 1015.8
20260508035911 39 168 0.0 0.0 0.00 0.00 0.00 93 1015.8
20260508034913 39 168 0.0 0.0 0.00 0.00 0.00 92 1015.7
20260508033916 39 168 0.0 0.0 0.00 0.00 0.00 90 1015.6
20260508033402 39 168 0.0 0.0 0.00 0.00 0.00 90 1015.7
20260508032408 40 168 0.0 0.0 0.00 0.00 0.00 89 1015.7
20260508031412 40 168 0.0 0.0 0.00 0.00 0.00 89 1015.7
20260508030417 41 168 0.0 0.0 0.00 0.00 0.00 88 1015.6
20260508025420 41 168 0.0 0.0 0.00 0.00 0.00 88 1015.5
20260508024357 42 168 0.0 0.0 0.00 0.00 0.00 87 1015.6
20260508023401 42 168 0.0 0.0 0.00 0.00 0.00 87 1015.6
20260508022902 42 168 0.0 0.0 0.00 0.00 0.00 87 1015.6
20260508022401 43 168 0.0 0.0 0.00 0.00 0.00 86 1015.5
20260508021409 43 168 0.0 0.0 0.00 0.00 0.00 86 1015.6
20260508020404 44 168 0.0 0.0 0.00 0.00 0.00 85 1015.4
20260508015409 45 168 0.0 0.0 0.00 0.00 0.00 83 1015.3
20260508014408 45 168 0.0 0.0 0.00 0.00 0.00 83 1015.4
20260508013409 46 168 0.0 0.0 0.00 0.00 0.00 81 1015.4
20260508012909 46 168 0.0 0.0 0.00 0.00 0.00 81 1015.4
20260508012408 47 168 0.0 0.0 0.00 0.00 0.00 81 1015.5
20260508011410 47 168 0.0 0.0 0.00 0.00 0.00 80 1015.3
20260508005918 48 168 0.0 0.0 0.00 0.00 0.00 79 1015.4
20260508004859 49 168 0.0 0.0 0.00 0.00 0.00 78 1015.4
20260508003908 49 168 0.0 0.0 0.00 0.00 0.00 76 1015.5
20260508002908 50 168 0.0 1.0 0.00 0.00 0.00 76 1015.6
20260508001913 50 168 0.0 1.0 0.00 0.00 0.00 76 1015.7
20260508000912 51 168 0.0 1.0 0.00 0.00 0.00 75 1015.7
20260507235401 51 168 0.0 1.0 0.00 0.00 0.00 71 1015.6
20260507234406 51 168 0.0 3.0 0.00 0.00 0.00 70 1015.5
20260507233414 51 150 0.0 3.0 0.00 0.00 0.00 70 1015.5
20260507232417 51 184 0.0 2.0 0.00 0.00 0.00 70 1015.7
20260507231401 51 218 0.0 2.0 0.00 0.00 0.00 69 1015.6
20260507225916 52 160 0.0 3.0 0.00 0.00 0.00 69 1015.7
20260507224906 52 199 0.0 2.0 0.00 0.00 0.00 69 1015.6
20260507223909 52 163 0.0 2.0 0.00 0.00 0.00 68 1015.6
20260507223407 52 138 0.0 2.0 0.00 0.00 0.00 68 1015.5
20260507222903 52 57 0.0 2.0 0.00 0.00 0.00 68 1015.5
20260507221904 52 114 0.0 2.0 0.00 0.00 0.00 68 1015.6
20260507220908 52 135 1.0 5.0 0.00 0.00 0.00 67 1015.7
20260507215911 53 201 0.0 2.0 0.00 0.00 0.00 67 1015.7
20260507214917 53 235 0.0 4.0 0.00 0.00 0.00 67 1015.6
20260507213919 53 106 1.0 4.0 0.00 0.00 0.00 67 1015.6
20260507212919 53 184 1.0 6.0 0.00 0.00 0.00 67 1015.7
20260507211917 53 158 1.0 5.0 0.00 0.00 0.00 67 1015.5
20260507210920 53 186 2.0 4.0 0.00 0.00 0.00 66 1015.5
20260507205903 53 172 1.0 5.0 0.00 0.00 0.00 65 1015.4
20260507204410 54 164 0.0 4.0 0.00 0.00 0.00 64 1015.5
20260507203413 54 154 0.0 6.0 0.00 0.00 0.00 62 1015.3
20260507202409 54 119 0.0 5.0 0.00 0.00 0.00 60 1015.2
20260507201416 54 108 0.0 4.0 0.00 0.00 0.00 60 1015.2
20260507200421 54 195 2.0 8.0 0.00 0.00 0.00 59 1015.2
20260507195906 54 101 1.0 4.0 0.00 0.00 0.00 58 1015.1
20260507194917 54 141 0.0 2.0 0.00 0.00 0.00 58 1015.0
20260507193919 55 197 1.0 5.0 0.00 0.00 0.00 58 1014.8
20260507192917 55 154 0.0 7.0 0.00 0.00 0.00 58 1014.6
20260507191903 55 202 0.0 5.0 0.00 0.00 0.00 58 1014.6
20260507190906 55 137 1.0 8.0 0.00 0.00 0.00 57 1014.5
20260507185913 55 158 0.0 3.0 0.00 0.00 0.00 58 1014.5
20260507184914 55 177 1.0 6.0 0.00 0.00 0.00 57 1014.4
20260507183918 55 17 0.0 7.0 0.00 0.00 0.00 57 1014.3
20260507182919 56 211 1.0 5.0 0.00 0.00 0.00 56 1014.3
20260507182403 56 155 1.0 8.0 0.00 0.00 0.00 56 1014.4
20260507181401 56 229 0.0 5.0 0.00 0.00 0.00 55 1014.3
20260507180410 56 189 2.0 10.0 0.00 0.00 0.00 55 1014.2
20260507175410 56 217 1.0 5.0 0.00 0.00 0.00 54 1014.1
20260507174413 56 216 1.0 6.0 0.00 0.00 0.00 54 1014.1
20260507173415 56 161 2.0 7.0 0.00 0.00 0.00 53 1014.2
20260507172418 56 158 1.0 6.0 0.00 0.00 0.00 53 1014.3
20260507171406 56 196 0.0 5.0 0.00 0.00 0.00 53 1014.3
20260507170409 56 115 2.0 7.0 0.00 0.00 0.00 53 1014.3
20260507165419 57 126 1.0 7.0 0.00 0.00 0.00 52 1014.6
20260507163411 56 153 0.0 5.0 0.00 0.00 0.00 55 1014.5
20260507162416 55 199 0.0 5.0 0.00 0.00 0.00 57 1014.5
20260507161417 55 153 0.0 6.0 0.00 0.00 0.00 56 1014.6
20260507160419 55 154 0.0 4.0 0.00 0.00 0.00 57 1014.6
20260507155900 55 168 0.0 5.0 0.00 0.00 0.00 57 1014.7
20260507154902 55 166 1.0 6.0 0.00 0.00 0.00 57 1014.7
20260507153903 55 131 1.0 5.0 0.00 0.00 0.00 58 1014.8
20260507152913 55 141 1.0 5.0 0.00 0.00 0.00 58 1014.8
20260507151919 55 177 1.0 6.0 0.00 0.00 0.00 58 1014.8
20260507151402 55 172 0.0 6.0 0.00 0.00 0.00 58 1014.8
20260507150409 55 226 1.0 4.0 0.00 0.00 0.00 57 1014.9
20260507145416 55 177 0.0 5.0 0.00 0.00 0.00 57 1014.9
20260507144412 55 211 0.0 5.0 0.00 0.00 0.00 57 1014.9
20260507143420 55 145 1.0 6.0 0.00 0.00 0.00 57 1015.1
20260507142421 56 207 0.0 5.0 0.00 0.00 0.00 56 1015.2
20260507141427 56 189 0.0 5.0 0.00 0.00 0.00 57 1015.2
20260507140406 56 178 1.0 4.0 0.00 0.00 0.00 57 1015.3
20260507135407 57 164 0.0 8.0 0.00 0.00 0.00 57 1015.5
20260507134410 57 109 0.0 5.0 0.00 0.00 0.00 57 1015.6
20260507132902 57 183 1.0 4.0 0.00 0.00 0.00 59 1015.6
20260507131906 56 127 0.0 4.0 0.00 0.00 0.00 59 1015.6
20260507130907 55 172 1.0 4.0 0.00 0.00 0.00 59 1015.6
20260507125910 55 160 1.0 5.0 0.00 0.00 0.00 60 1015.8
20260507124911 54 179 1.0 5.0 0.00 0.00 0.00 62 1015.8
20260507123915 54 148 1.0 5.0 0.00 0.00 0.00 62 1015.9
20260507122921 54 241 1.0 5.0 0.00 0.00 0.00 63 1016.0
20260507122419 54 112 1.0 5.0 0.00 0.00 0.00 63 1015.9
20260507121400 0 171 2.0 6.0 0.00 0.00 0.00 1015.8
20260507120401 0 105 0.0 4.0 0.00 0.00 0.00 1016.0
20260507115410 0 195 0.0 6.0 0.00 0.00 0.00 1016.1
20260507114907 0 148 1.0 4.0 0.00 0.00 0.00 1016.0
20260507113910 0 174 1.0 5.0 0.00 0.00 0.00 1016.0
20260507112909 0 189 1.0 7.0 0.00 0.00 0.00 1016.4
20260507111910 0 144 2.0 8.0 0.00 0.00 0.00 1016.4
20260507110911 0 227 1.0 7.0 0.00 0.00 0.00 1016.5
20260507105913 0 187 0.0 6.0 0.00 0.00 0.00 1016.6
20260507104914 0 193 2.0 8.0 0.00 0.00 0.00 1016.6
20260507103917 0 110 2.0 9.0 0.00 0.00 0.00 1016.4
20260507102917 0 162 1.0 4.0 0.00 0.00 0.00 1016.4
20260507102415 0 173 1.0 4.0 0.00 0.00 0.00 1016.5
20260507101418 50 193 3.0 7.0 0.00 0.00 0.00 72 1016.6
20260507100903 50 97 0.0 6.0 0.00 0.00 0.00 73 1016.6
20260507095904 50 216 1.0 6.0 0.00 0.00 0.00 75 1016.6
20260507094909 49 199 2.0 4.0 0.00 0.00 0.00 75 1016.5
20260507093911 49 168 0.0 4.0 0.00 0.00 0.00 76 1016.5
20260507092926 49 101 2.0 6.0 0.00 0.00 0.00 76 1016.4
20260507091916 48 89 0.0 5.0 0.00 0.00 0.00 80 1016.3
20260507090918 47 166 0.0 3.0 0.00 0.00 0.00 80 1016.5
20260507090404 47 191 0.0 4.0 0.00 0.00 0.00 80 1016.5
20260507085404 46 92 1.0 4.0 0.00 0.00 0.00 81 1016.5
20260507084406 46 156 1.0 6.0 0.00 0.00 0.00 80 1016.5
20260507083409 46 181 1.0 5.0 0.00 0.00 0.00 80 1016.5
20260507082417 46 107 1.0 4.0 0.00 0.00 0.00 80 1016.4
20260507081416 45 181 0.0 3.0 0.00 0.00 0.00 81 1016.4